Regional Weather Roundup
Issued by NWS Bismarck, ND

Home | Current Version | Previous Version | Text Only | Print | Product List | Glossary On
Versions: 1 2 3 4 5 6 7 8 9 10 11 12 13 14 15 16 17 18 19 20 21 22 23 24 25 26 27 28 29 30 31 32 33 34 35 36 37 38 39 40 41 42 43 44 45 46 47 48 49 50
000
ASUS43 KBIS 240010
RWRBIS

NWR BROADCAST TEXT
NATIONAL WEATHER SERVICE BISMARCK ND
700 PM CDT WED JUL 23 2014

NOTE: "FAIR" INDICATES FEW OR NO CLOUDS BELOW 12,000 FEET WITH NO
SIGNIFICANT WEATHER AND/OR OBSTRUCTIONS TO VISIBILITY.


CITY           SKY/WX    TMP DP  RH WIND       PRES   REMARKS
WILLISTON      MOSUNNY   86  61  42 SE17G25   30.05F
MINOT          MOSUNNY   76  66  71 E16       30.13F
MINOT AFB      MOSUNNY   75  68  78 E16       30.13F
BISMARCK       SUNNY     82  60  47 SE17      30.13F
DICKINSON      MOSUNNY   79  62  56 SE18G26   30.08F
GARRISON         N/A     79  65  62 SE13      30.12F
HETTINGER ARPT SUNNY     81  59  47 SE23      30.08F
JAMESTOWN      SUNNY     77  57  50 S8        30.19F
CARRINGTON     FAIR      75  63  64 SE9       30.20F
CROSBY           N/A     75  72  88 E15G21    30.09F
HARVEY         FAIR      72  64  78 SE10      30.18F
HAZEN          FAIR      81  61  50 SE16      30.12F
LINTON         FAIR      81  63  54 SE14      30.15F
MANDAN         FAIR      81  63  54 SE10G18   30.14F
RUGBY          FAIR      72  63  73 E14       30.18F
STANLEY        FAIR      75  68  78 SE17G25   30.12F
TIOGA          MOCLDY    79  66  65 SE20G26   30.13F
WATFORD CITY   FAIR      82  63  51 SE22      30.04F
$$

CITY           SKY/WX    TMP DP  RH WIND       PRES   REMARKS
GRAND FORKS    MOSUNNY   74  59  59 NW5       30.21F
GRAND FORKS AF SUNNY     73  59  62 N5        30.22F
DEVILS LAKE    PTSUNNY   73  57  56 E8        30.20F
FARGO          SUNNY     76  57  51 NE8       30.20F
CANDO          FAIR      72  57  60 SE8       30.21F
CAVALIER       FAIR      72  52  49 NE7       30.22S
GRAFTON        FAIR      72  54  53 N6        30.21F
GWINNER        CLEAR     79  57  47 SE7       30.21F
LANGDON        FAIR      70  55  60 SE5       30.24S
ROLLA          FAIR      70  59  68 SE8G22    30.22F
WALHALLA         N/A     72  54  53 E5          N/A
$$

CITY           SKY/WX    TMP DP  RH WIND       PRES   REMARKS
ABERDEEN       PTSUNNY   78  55  44 E8        30.18F
MOBRIDGE       MOSUNNY   82  57  42 SE18G25   30.11F
BUFFALO          N/A     85  60  42 SE24G30   29.98F
RAPID CITY     SUNNY     84  65  52 SE14      30.09F
GLASGOW        SUNNY     92  58  31 E17       29.94F HX  91
SIDNEY         MOSUNNY   90  64  43 SE12G18   30.01F HX  91
WOLF POINT     MOSUNNY   92  59  33 E13G22    29.96F HX  91
GLENDIVE       MOSUNNY   90  64  43 SE18G24   30.01F HX  91
MILES CITY     MOSUNNY   93  64  38 E15       29.92F HX  94
BAKER          MOSUNNY   84  64  50 SE21G29   30.04F
$$

CITY           SKY/WX    TMP DP  RH WIND       PRES   REMARKS
BILLINGS       MOSUNNY   90  58  33 E6        29.98F
GREAT FALLS    SUNNY     91  48  22 S7        29.93F
REGINA         PTSUNNY   75  63  64 E15G23    30.10F
ESTEVAN        PTSUNNY   73  64  73 SE16      30.12F
$$



USA.gov is the U.S. government's official web portal to all federal, state and local government web resources and services.